| time (UTC) | temp F | wind direction | speed knots | gust knots | rain 1hr in | rain 24hr in | rain mn in | humidity % | barometer mb |
| 20260507081520 | 51 | 243 | 1.7 | 2.6 | 0.00 | 0.00 | 0.00 | 94 | 1006.4 |
| 20260507080540 | 51 | 257 | 1.7 | 2.6 | 0.00 | 0.00 | 0.00 | 93 | 1006.7 |
| 20260507075520 | 52 | 250 | 1.7 | 2.6 | 0.00 | 0.00 | 0.00 | 92 | 1006.9 |
| 20260507074520 | 52 | 259 | 1.7 | 4.3 | 0.00 | 0.00 | 0.00 | 90 | 1006.5 |
| 20260507073537 | 53 | 252 | 2.6 | 6.1 | 0.00 | 0.00 | 0.00 | 90 | 1006.8 |
| 20260507072518 | 53 | 257 | 2.6 | 7.0 | 0.00 | 0.00 | 0.00 | 91 | 1006.1 |
| 20260507071521 | 54 | 288 | 1.7 | 2.6 | 0.00 | 0.00 | 0.00 | 91 | 1005.9 |
| 20260507070521 | 54 | 259 | 1.7 | 2.6 | 0.00 | 0.00 | 0.00 | 91 | 1006.0 |
| 20260507065521 | 54 | 283 | 1.7 | 2.6 | 0.00 | 0.00 | 0.00 | 92 | 1005.9 |
| 20260507064541 | 54 | 264 | 1.7 | 2.6 | 0.00 | 0.00 | 0.00 | 91 | 1005.8 |
| 20260507063521 | 54 | 265 | 1.7 | 3.5 | 0.00 | 0.00 | 0.00 | 91 | 1006.0 |
| 20260507062522 | 54 | 241 | 1.7 | 4.3 | 0.00 | 0.00 | 0.00 | 91 | 1006.0 |
| 20260507061521 | 55 | 276 | 1.7 | 2.6 | 0.00 | 0.00 | 0.00 | 91 | 1005.8 |
| 20260507060519 | 55 | 275 | 1.7 | 4.3 | 0.00 | 0.00 | 0.00 | 90 | 1006.0 |
| 20260507055522 | 55 | 240 | 1.7 | 3.5 | 0.00 | 0.00 | 0.00 | 90 | 1006.0 |
| 20260507054519 | 55 | 251 | 1.7 | 4.3 | 0.00 | 0.00 | 0.00 | 91 | 1006.0 |
| 20260507053543 | 56 | 260 | 1.7 | 3.5 | 0.00 | 0.00 | 0.00 | 92 | 1006.2 |
| 20260507052522 | 56 | 242 | 1.7 | 3.5 | 0.00 | 0.00 | 0.00 | 93 | 1006.0 |
| 20260507051522 | 56 | 239 | 1.7 | 3.5 | 0.00 | 0.00 | 0.00 | 93 | 1005.8 |
| 20260507050520 | 57 | 240 | 1.7 | 6.1 | 0.00 | 0.00 | 0.00 | 93 | 1005.9 |
| 20260507045520 | 57 | 244 | 1.7 | 6.1 | 0.00 | 0.00 | 0.00 | 94 | 1006.1 |
| 20260507044540 | 57 | 251 | 2.6 | 6.1 | 0.00 | 0.00 | 0.00 | 96 | 1006.2 |
| 20260507043520 | 58 | 251 | 2.6 | 6.1 | 0.00 | 0.00 | 0.00 | 96 | 1005.9 |
| 20260507042523 | 58 | 246 | 1.7 | 2.6 | 0.00 | 0.00 | 0.00 | 96 | 1006.0 |
| 20260507041521 | 58 | 252 | 2.6 | 4.3 | 0.00 | 0.00 | 0.00 | 97 | 1006.0 |
| 20260507040521 | 59 | 255 | 3.5 | 7.0 | 0.00 | 0.00 | 0.00 | 97 | 1006.1 |
| 20260507035520 | 59 | 252 | 2.6 | 5.2 | 0.00 | 0.00 | 0.00 | 97 | 1006.2 |
| 20260507034521 | 59 | 249 | 3.5 | 6.1 | 0.00 | 0.00 | 0.00 | 97 | 1005.8 |
| 20260507033521 | 59 | 250 | 3.5 | 6.1 | 0.00 | 0.00 | 0.00 | 96 | 1005.7 |
| 20260507032521 | 59 | 253 | 4.3 | 7.8 | 0.00 | 0.00 | 0.00 | 96 | 1005.8 |
| 20260507031521 | 59 | 250 | 3.5 | 7.0 | 0.00 | 0.00 | 0.00 | 95 | 1005.5 |
| 20260507030541 | 59 | 242 | 2.6 | 4.3 | 0.00 | 0.00 | 0.00 | 95 | 1005.3 |
| 20260507025521 | 59 | 242 | 3.5 | 7.0 | 0.00 | 0.00 | 0.00 | 95 | 1005.2 |
| 20260507024522 | 59 | 241 | 2.6 | 7.0 | 0.00 | 0.00 | 0.00 | 95 | 1005.3 |
| 20260507023516 | 59 | 240 | 3.5 | 6.1 | 0.00 | 0.00 | 0.00 | 95 | 1005.4 |
| 20260507022519 | 59 | 250 | 2.6 | 8.7 | 0.00 | 0.00 | 0.00 | 95 | 1005.4 |
| 20260507021521 | 59 | 230 | 2.6 | 6.1 | 0.00 | 0.00 | 0.00 | 95 | 1005.4 |
| 20260507020522 | 59 | 233 | 2.6 | 6.1 | 0.00 | 0.00 | 0.00 | 95 | 1005.4 |
| 20260507015522 | 59 | 202 | 2.6 | 7.0 | 0.00 | 0.00 | 0.00 | 95 | 1005.3 |
| 20260507014543 | 59 | 235 | 2.6 | 7.0 | 0.00 | 0.00 | 0.00 | 95 | 1005.5 |
| 20260507013522 | 59 | 208 | 3.5 | 8.7 | 0.00 | 0.00 | 0.00 | 95 | 1005.4 |
| 20260507012517 | 58 | 200 | 3.5 | 7.0 | 0.00 | 0.00 | 0.00 | 96 | 1005.5 |
| 20260507011517 | 58 | 194 | 3.5 | 7.8 | 0.00 | 0.00 | 0.00 | 95 | 1005.5 |
| 20260507010517 | 58 | 202 | 5.2 | 10.4 | 0.00 | 0.00 | 0.00 | 95 | 1005.6 |
| 20260507005517 | 58 | 221 | 3.5 | 7.0 | 0.00 | 0.00 | 0.00 | 95 | 1005.7 |
| 20260507004537 | 58 | 228 | 3.5 | 7.0 | 0.00 | 0.00 | 0.00 | 95 | 1005.7 |
| 20260507003523 | 58 | 220 | 3.5 | 7.0 | 0.00 | 0.00 | 0.00 | 95 | 1005.6 |
| 20260507002537 | 58 | 225 | 3.5 | 7.0 | 0.00 | 0.00 | 0.00 | 96 | 1005.7 |
| 20260507001518 | 59 | 211 | 2.6 | 4.3 | 0.00 | 0.00 | 0.00 | 95 | 1005.6 |
| 20260507000518 | 59 | 206 | 3.5 | 6.1 | 0.00 | 0.00 | 0.00 | 95 | 1005.3 |
| 20260506235538 | 59 | 187 | 4.3 | 9.6 | 0.00 | 0.00 | 0.00 | 95 | 1005.3 |
| 20260506234518 | 59 | 202 | 3.5 | 7.0 | 0.00 | 0.00 | 0.00 | 95 | 1005.4 |
| 20260506233518 | 59 | 188 | 3.5 | 6.1 | 0.00 | 0.00 | 0.00 | 95 | 1005.4 |
| 20260506232518 | 59 | 213 | 3.5 | 7.8 | 0.00 | 0.00 | 0.00 | 95 | 1005.3 |
| 20260506231518 | 59 | 221 | 3.5 | 8.7 | 0.00 | 0.00 | 0.00 | 94 | 1005.3 |
| 20260506230518 | 59 | 203 | 4.3 | 9.6 | 0.00 | 0.00 | 0.00 | 95 | 1005.4 |
| 20260506225518 | 59 | 208 | 2.6 | 6.1 | 0.00 | 0.00 | 0.00 | 95 | 1005.4 |
| 20260506224519 | 59 | 198 | 3.5 | 7.0 | 0.00 | 0.00 | 0.00 | 95 | 1005.5 |
| 20260506223519 | 59 | 198 | 3.5 | 7.0 | 0.00 | 0.00 | 0.00 | 95 | 1005.6 |
| 20260506222519 | 59 | 196 | 3.5 | 6.1 | 0.00 | 0.00 | 0.00 | 95 | 1005.7 |
| 20260506221539 | 60 | 207 | 2.6 | 7.8 | 0.00 | 0.00 | 0.00 | 95 | 1005.8 |
| 20260506220528 | 60 | 213 | 1.7 | 4.3 | 0.00 | 0.00 | 0.00 | 94 | 1005.9 |
| 20260506215516 | 60 | 203 | 3.5 | 8.7 | 0.00 | 0.00 | 0.00 | 93 | 1005.9 |
| 20260506214540 | 61 | 218 | 2.6 | 7.0 | 0.00 | 0.00 | 0.00 | 90 | 1006.1 |
| 20260506213517 | 61 | 198 | 5.2 | 10.4 | 0.00 | 0.00 | 0.00 | 89 | 1006.3 |
| 20260506212520 | 61 | 208 | 3.5 | 7.0 | 0.00 | 0.00 | 0.00 | 90 | 1006.2 |
| 20260506211540 | 61 | 183 | 5.2 | 11.3 | 0.00 | 0.00 | 0.00 | 89 | 1006.3 |
| 20260506210520 | 61 | 198 | 3.5 | 7.0 | 0.00 | 0.00 | 0.00 | 89 | 1006.2 |
| 20260506205557 | 61 | 199 | 4.3 | 10.4 | 0.00 | 0.00 | 0.00 | 88 | 1006.3 |
| 20260506204520 | 61 | 214 | 3.5 | 7.8 | 0.00 | 0.00 | 0.00 | 88 | 1006.5 |
| 20260506203520 | 61 | 208 | 4.3 | 8.7 | 0.00 | 0.00 | 0.00 | 88 | 1006.7 |
| 20260506202517 | 61 | 211 | 5.2 | 9.6 | 0.00 | 0.00 | 0.00 | 87 | 1006.5 |
| 20260506201520 | 62 | 188 | 3.5 | 7.8 | 0.00 | 0.00 | 0.00 | 89 | 1006.5 |
| 20260506200520 | 62 | 180 | 3.5 | 7.8 | 0.00 | 0.00 | 0.00 | 88 | 1006.4 |
| 20260506195538 | 62 | 222 | 2.6 | 10.4 | 0.00 | 0.00 | 0.00 | 89 | 1006.4 |
| 20260506194521 | 62 | 196 | 2.6 | 6.1 | 0.00 | 0.00 | 0.00 | 87 | 1006.5 |
| 20260506193537 | 63 | 222 | 4.3 | 8.7 | 0.00 | 0.00 | 0.00 | 84 | 1006.7 |
| 20260506192521 | 64 | 220 | 2.6 | 6.1 | 0.00 | 0.00 | 0.00 | 80 | 1006.8 |
| 20260506191521 | 66 | 233 | 3.5 | 8.7 | 0.00 | 0.00 | 0.00 | 76 | 1006.8 |
| 20260506190518 | 67 | 225 | 5.2 | 11.3 | 0.00 | 0.00 | 0.00 | 71 | 1006.7 |
| 20260506185522 | 68 | 217 | 2.6 | 7.0 | 0.00 | 0.00 | 0.00 | 69 | 1006.7 |
| 20260506184519 | 69 | 247 | 6.1 | 15.6 | 0.00 | 0.00 | 0.00 | 66 | 1006.8 |
| 20260506183542 | 69 | 242 | 4.3 | 8.7 | 0.00 | 0.00 | 0.00 | 64 | 1006.8 |
| 20260506182516 | 70 | 236 | 5.2 | 13.0 | 0.00 | 0.00 | 0.00 | 61 | 1006.9 |
| 20260506181519 | 70 | 237 | 6.1 | 11.3 | 0.00 | 0.00 | 0.00 | 60 | 1006.9 |
| 20260506180519 | 71 | 201 | 7.0 | 13.9 | 0.00 | 0.00 | 0.00 | 58 | 1007.0 |
| 20260506175600 | 71 | 212 | 6.1 | 14.8 | 0.00 | 0.00 | 0.00 | 58 | 1007.0 |
| 20260506174519 | 71 | 217 | 5.2 | 13.9 | 0.00 | 0.00 | 0.00 | 59 | 1007.2 |
| 20260506173517 | 71 | 192 | 5.2 | 12.2 | 0.00 | 0.00 | 0.00 | 59 | 1007.2 |
| 20260506172516 | 71 | 200 | 6.1 | 12.2 | 0.00 | 0.00 | 0.00 | 60 | 1007.2 |
| 20260506171517 | 71 | 205 | 5.2 | 11.3 | 0.00 | 0.00 | 0.00 | 60 | 1007.3 |
| 20260506170517 | 70 | 183 | 6.1 | 13.0 | 0.00 | 0.00 | 0.00 | 62 | 1007.3 |
| 20260506165520 | 70 | 169 | 4.3 | 13.0 | 0.00 | 0.00 | 0.00 | 62 | 1007.4 |
| 20260506164518 | 70 | 183 | 6.1 | 12.2 | 0.00 | 0.00 | 0.00 | 62 | 1007.5 |
| 20260506163517 | 70 | 196 | 6.1 | 11.3 | 0.00 | 0.00 | 0.00 | 62 | 1007.6 |
| 20260506162517 | 71 | 176 | 5.2 | 12.2 | 0.00 | 0.00 | 0.00 | 62 | 1007.8 |
| 20260506161518 | 71 | 195 | 3.5 | 6.1 | 0.00 | 0.00 | 0.00 | 61 | 1008.0 |
| 20260506160518 | 71 | 210 | 4.3 | 13.0 | 0.00 | 0.00 | 0.00 | 60 | 1008.2 |
| 20260506155516 | 71 | 239 | 3.5 | 13.9 | 0.00 | 0.00 | 0.00 | 60 | 1008.3 |
| 20260506154516 | 71 | 218 | 6.1 | 11.3 | 0.00 | 0.00 | 0.00 | 59 | 1008.5 |
| 20260506153519 | 71 | 224 | 6.1 | 13.0 | 0.00 | 0.00 | 0.00 | 60 | 1008.6 |
| 20260506152519 | 70 | 203 | 7.0 | 13.9 | 0.00 | 0.00 | 0.00 | 61 | 1008.7 |
| 20260506151539 | 70 | 185 | 6.1 | 11.3 | 0.00 | 0.00 | 0.00 | 62 | 1008.7 |
| 20260506150517 | 69 | 194 | 5.2 | 10.4 | 0.00 | 0.00 | 0.00 | 64 | 1008.8 |
| 20260506145517 | 69 | 234 | 4.3 | 11.3 | 0.00 | 0.00 | 0.00 | 65 | 1009.0 |
| 20260506144517 | 68 | 229 | 3.5 | 7.8 | 0.00 | 0.00 | 0.00 | 67 | 1008.8 |
| 20260506143516 | 68 | 180 | 6.1 | 11.3 | 0.00 | 0.00 | 0.00 | 68 | 1008.9 |
| 20260506142516 | 68 | 208 | 3.5 | 9.6 | 0.00 | 0.00 | 0.00 | 69 | 1008.9 |
| 20260506141520 | 67 | 194 | 4.3 | 8.7 | 0.00 | 0.00 | 0.00 | 69 | 1008.8 |
| 20260506140558 | 67 | 180 | 4.3 | 8.7 | 0.00 | 0.00 | 0.00 | 71 | 1008.9 |
| 20260506135518 | 66 | 172 | 5.2 | 9.6 | 0.00 | 0.00 | 0.00 | 71 | 1008.9 |
| 20260506134518 | 65 | 188 | 5.2 | 11.3 | 0.00 | 0.00 | 0.00 | 73 | 1008.9 |
| 20260506133517 | 64 | 202 | 3.5 | 9.6 | 0.00 | 0.00 | 0.00 | 75 | 1009.4 |
| 20260506132519 | 64 | 176 | 2.6 | 8.7 | 0.00 | 0.00 | 0.00 | 75 | 1009.5 |
| 20260506131517 | 64 | 189 | 3.5 | 8.7 | 0.00 | 0.00 | 0.00 | 76 | 1009.5 |
| 20260506130537 | 63 | 195 | 5.2 | 8.7 | 0.00 | 0.00 | 0.00 | 77 | 1009.5 |
| 20260506125538 | 63 | 190 | 5.2 | 12.2 | 0.00 | 0.00 | 0.00 | 77 | 1009.4 |
| 20260506124517 | 63 | 196 | 4.3 | 10.4 | 0.00 | 0.00 | 0.00 | 78 | 1009.4 |
| 20260506123518 | 62 | 202 | 5.2 | 10.4 | 0.00 | 0.00 | 0.00 | 78 | 1009.6 |
| 20260506122518 | 62 | 199 | 4.3 | 9.6 | 0.00 | 0.00 | 0.00 | 79 | 1009.7 |
| 20260506121519 | 62 | 176 | 4.3 | 7.8 | 0.00 | 0.00 | 0.00 | 79 | 1009.4 |
| 20260506120518 | 61 | 188 | 5.2 | 10.4 | 0.00 | 0.00 | 0.00 | 80 | 1009.5 |
| 20260506115519 | 61 | 183 | 6.1 | 10.4 | 0.00 | 0.00 | 0.00 | 80 | 1009.8 |
| 20260506114540 | 61 | 210 | 2.6 | 7.0 | 0.00 | 0.00 | 0.00 | 80 | 1009.7 |
| 20260506113520 | 61 | 198 | 3.5 | 7.0 | 0.00 | 0.00 | 0.00 | 80 | 1010.0 |
| 20260506112516 | 61 | 197 | 4.3 | 10.4 | 0.00 | 0.00 | 0.00 | 80 | 1010.0 |
| 20260506111521 | 61 | 183 | 5.2 | 8.7 | 0.00 | 0.00 | 0.00 | 80 | 1009.7 |
| 20260506110539 | 61 | 186 | 3.5 | 9.6 | 0.00 | 0.00 | 0.00 | 80 | 1009.8 |
| 20260506105520 | 61 | 195 | 3.5 | 8.7 | 0.00 | 0.00 | 0.00 | 81 | 1009.8 |
| 20260506104521 | 60 | 190 | 3.5 | 7.0 | 0.00 | 0.00 | 0.00 | 81 | 1009.8 |
| 20260506103521 | 61 | 204 | 3.5 | 8.7 | 0.00 | 0.00 | 0.00 | 81 | 1009.8 |
| 20260506102517 | 61 | 198 | 3.5 | 7.0 | 0.00 | 0.00 | 0.00 | 80 | 1009.8 |
| 20260506101517 | 61 | 206 | 3.5 | 8.7 | 0.00 | 0.00 | 0.00 | 80 | 1009.8 |
| 20260506100517 | 61 | 199 | 4.3 | 7.0 | 0.00 | 0.00 | 0.00 | 79 | 1009.7 |
| 20260506095518 | 61 | 208 | 2.6 | 7.0 | 0.00 | 0.00 | 0.00 | 79 | 1009.6 |
| 20260506094538 | 61 | 192 | 4.3 | 7.0 | 0.00 | 0.00 | 0.00 | 79 | 1009.5 |
| 20260506093518 | 61 | 211 | 2.6 | 6.1 | 0.00 | 0.00 | 0.00 | 79 | 1009.6 |
| 20260506092538 | 61 | 213 | 3.5 | 7.0 | 0.00 | 0.00 | 0.00 | 79 | 1009.7 |
| 20260506091538 | 61 | 186 | 3.5 | 7.8 | 0.00 | 0.00 | 0.00 | 78 | 1009.6 |
| 20260506090518 | 61 | 213 | 3.5 | 7.8 | 0.00 | 0.00 | 0.00 | 78 | 1009.6 |
| 20260506085518 | 61 | 202 | 2.6 | 7.8 | 0.00 | 0.00 | 0.00 | 78 | 1009.8 |
| 20260506084518 | 61 | 200 | 4.3 | 7.8 | 0.00 | 0.00 | 0.00 | 77 | 1009.7 |
| 20260506083518 | 61 | 209 | 2.6 | 8.7 | 0.00 | 0.00 | 0.00 | 77 | 1009.7 |
| 20260506082558 | 62 | 202 | 3.5 | 7.8 | 0.00 | 0.00 | 0.00 | 77 | 1009.7 |